Content
SEND FEEDBACK

Daily
Averages
Monthly
Summary
United States of America

ST. LOUIS, MISSOURI


Home > North America > United States > Missouri
Elevation: 535 feet     Latitude: 38 45N     Longitude: 090 22W

WEATHER
 
SELECT A DAY
Number of Records: 201,234;   Date Range: 1/1/95 - 12/18/14
 
SHARE

PRINT THIS DATA

[ ← Previous Day ]
WEATHER ALMANAC - APRIL 19, 2013
[ Next Day → ]
[ °C ]   °F
Weather ElementAverageHighLow
Temperature44 °F51.1 °F (2:54 pm)36 °F (11:54 pm)
Dewpoint26 °F28.9 °F (9:54 pm)21.9 °F (5:54 pm)
Humidity51 %76 % (11:54 pm)33 % (4:54 pm)
Barometer29.92 in30.09 in (11:54 pm)29.78 in (1:54 am)
Wind Speed14.5 mph23 mph (5:54 pm)
Wind Gust33.4 mph (3:54 am)
Weather ElementAverage
Visibility10 mi
Wind DirectionWSW (255 °)

Weather ElementTotal
Precipitation---
Heating Degree Days21.5 (Base 65)
Averaged from 20 records on April 19, 2013
WEATHER CONDITIONS BREAKOUT
WIND DIRECTION BREAKOUT
WEATHER BY HOUR - APRIL 19, 2013
[ °C ]   °F
Local TimeTemperatureDewpointHumidityBarometerVisibilityWind DirectionWind SpeedGust SpeedPrecipitationEventsConditions
1:54 AM41.0 °F28.0 °F60 %29.78 in10.0 miWest (270°)16.1 mph26.5 mphOvercast
2:54 AM41.0 °F28.0 °F60 %29.79 in10.0 miWest (270°)18.4 mph28.8 mphOvercast
3:54 AM39.9 °F26.1 °F58 %29.79 in10.0 miWest (270°)13.8 mph33.4 mphOvercast
4:54 AM39.9 °F26.1 °F58 %29.81 in10.0 miWest (280°)16.1 mph26.5 mphOvercast
8:54 AM37.9 °F26.1 °F62 %29.88 in10.0 miWest (260°)11.5 mph23.0 mphOvercast
9:54 AM39.0 °F26.1 °F60 %29.89 in10.0 miWest (260°)13.8 mph23.0 mphOvercast
10:54 AM41.0 °F28.0 °F60 %29.90 in10.0 miWest (270°)12.7 mph24.2 mphOvercast
11:54 AM44.1 °F28.0 °F53 %29.90 in10.0 miWest (260°)12.7 mph27.6 mphOvercast
12:54 PM46.9 °F27.0 °F46 %29.90 in10.0 miWest (260°)18.4 mph24.2 mphMostly Cloudy
1:54 PM50.0 °F28.0 °F43 %29.89 in10.0 miWest (260°)19.6 mph29.9 mphMostly Cloudy
2:54 PM51.1 °F26.1 °F38 %29.90 in10.0 miWest (260°)17.3 mph28.8 mphMostly Cloudy
3:54 PM50.0 °F24.1 °F36 %29.91 in10.0 miWest (280°)20.7 mph32.2 mphMostly Cloudy
4:54 PM51.1 °F23.0 °F33 %29.94 in10.0 miWest (280°)19.6 mph32.2 mphMostly Cloudy
5:54 PM50.0 °F21.9 °F33 %29.96 in10.0 miWest (270°)23.0 mph32.2 mphOvercast
6:54 PM50.0 °F21.9 °F33 %29.98 in10.0 miWest (280°)21.9 mph31.1 mphMostly Cloudy
7:54 PM48.0 °F21.9 °F36 %30.01 in10.0 miWest (280°)17.3 mph23.0 mphClear
8:54 PM44.1 °F24.1 °F45 %30.04 in10.0 miWNW (290°)6.9 mphClear
9:54 PM39.9 °F28.9 °F65 %30.06 in10.0 miCalmClear
10:54 PM39.0 °F28.0 °F65 %30.07 in10.0 miWSW (250°)4.6 mphClear
11:54 PM36.0 °F28.9 °F76 %30.09 in10.0 miWSW (250°)5.8 mphClear
Hourly data recorded from KSUS, located miles away from St. Louis, Missouri







STORIES FROM OUR PARTNERS